DW5759 Weather Reports


time (UTC)temp
F
wind
direction
speed
knots
gust
knots
rain 1hr
in
rain 24hr
in
rain mn
in
humidity
%
barometer
mb
20260506223020 62 60 0.0 0.0 0.00 0.38 0.38 94 1004.7
20260506221521 61 251 0.0 0.0 0.00 0.38 0.38 93 1004.7
20260506220029 61 79 0.0 0.0 0.00 0.38 0.38 93 1004.7
20260506214512 61 148 0.0 0.0 0.01 0.38 0.38 93 1004.6
20260506213018 62 18 0.0 0.0 0.02 0.38 0.38 93 1004.5
20260506211525 62 266 0.0 0.0 0.02 0.38 0.38 93 1004.6
20260506210026 62 268 0.0 0.0 0.02 0.38 0.38 93 1004.4
20260506204528 61 315 0.0 0.0 0.01 0.37 0.37 93 1004.5
20260506203021 61 289 0.0 0.9 0.00 0.36 0.36 92 1004.5
20260506201520 61 311 0.0 5.2 0.00 0.36 0.36 92 1004.6
20260506200023 62 360 0.0 0.0 0.00 0.36 0.36 93 1004.7
20260506194526 62 228 0.0 5.2 0.00 0.36 0.36 93 1004.9
20260506193025 62 67 0.0 5.2 0.02 0.36 0.36 93 1004.8
20260506191529 61 75 0.0 3.5 0.04 0.36 0.36 93 1005.0
20260506190020 61 203 0.0 1.7 0.06 0.36 0.36 93 1005.2
20260506184522 61 247 0.0 1.7 0.07 0.36 0.36 93 1005.3
20260506183026 61 194 0.0 0.0 0.06 0.34 0.34 93 1005.4
20260506181514 61 172 0.0 0.9 0.06 0.32 0.32 93 1005.5
20260506180028 61 50 0.0 3.5 0.06 0.30 0.30 93 1005.6
20260506174526 61 229 0.0 0.0 0.07 0.29 0.29 93 1005.6
20260506173026 61 63 0.0 0.9 0.09 0.28 0.28 93 1005.6
20260506171538 61 96 0.0 0.0 0.09 0.26 0.26 93 1005.8
20260506170003 61 101 0.0 0.0 0.10 0.24 0.24 93 1005.7
20260506164503 61 62 0.0 0.0 0.10 0.22 0.22 92 1006.3
20260506163028 61 122 0.0 0.0 0.10 0.19 0.19 92 1006.5
20260506161516 61 200 0.0 0.0 0.11 0.17 0.17 91 1007.0
20260506160014 62 116 0.0 0.0 0.11 0.14 0.14 91 1007.0
20260506154503 62 172 0.0 0.0 0.10 0.12 0.12 91 1007.0
20260506153003 62 172 0.0 0.0 0.08 0.09 0.09 90 1007.2
20260506151504 62 172 0.0 0.0 0.06 0.06 0.06 89 1007.2
20260506150012 63 175 0.0 0.0 0.03 0.03 0.03 88 1007.4
20260506144502 63 175 0.0 0.0 0.02 0.02 0.02 87 1007.3
20260506143003 64 165 0.0 2.6 0.01 0.01 0.01 84 1007.5
20260506141503 65 175 0.0 3.5 0.00 0.00 0.00 82 1007.6
20260506140010 66 208 0.0 3.5 0.00 0.00 0.00 79 1007.5
20260506134526 66 359 0.0 7.8 0.00 0.00 0.00 76 1007.4
20260506133004 67 141 0.0 6.1 0.00 0.00 0.00 76 1007.1
20260506131504 66 229 2.6 8.7 0.00 0.00 0.00 76 1006.9
20260506130005 66 326 0.0 7.0 0.00 0.00 0.00 77 1006.9
20260506124516 66 254 0.0 5.2 0.00 0.00 0.00 77 1007.2
20260506123014 65 127 0.0 0.0 0.00 0.00 0.00 78 1007.2
20260506121507 64 127 0.0 1.7 0.00 0.00 0.00 79 1007.4
20260506120009 63 254 0.0 0.0 0.00 0.00 0.00 79 1007.6
20260506114515 63 254 0.0 0.9 0.00 0.00 0.00 79 1007.5
20260506113032 62 354 0.0 0.0 0.00 0.00 0.00 80 1007.3
20260506111518 61 354 0.0 0.0 0.00 0.00 0.00 80 1007.2
20260506110011 61 354 0.0 0.0 0.00 0.00 0.00 80 1007.2
20260506104506 60 354 0.0 0.0 0.00 0.00 0.00 82 1007.3
20260506103020 59 354 0.0 0.0 0.00 0.00 0.00 83 1007.1
20260506101514 58 335 0.0 0.0 0.00 0.00 0.00 84 1007.0
20260506100030 58 335 0.0 0.0 0.00 0.00 0.00 84 1007.0
20260506094524 58 330 0.0 0.0 0.00 0.00 0.00 83 1007.1
20260506093005 58 330 0.0 0.0 0.00 0.00 0.00 83 1007.1
20260506091511 58 332 0.0 0.0 0.00 0.00 0.00 82 1006.8
20260506090017 59 273 0.0 0.0 0.00 0.00 0.00 81 1007.0
20260506084519 60 273 0.0 0.0 0.00 0.00 0.00 78 1007.2
20260506083007 61 273 0.0 0.0 0.00 0.00 0.00 76 1007.4
20260506081506 62 273 0.0 0.0 0.00 0.00 0.00 72 1007.5
20260506073022 66 273 0.0 0.0 0.00 0.00 0.00 63 1007.2
20260506071510 67 273 0.0 0.0 0.00 0.00 0.00 62 1007.3
20260506061505 68 346 0.0 5.2 0.00 0.00 0.00 61 1007.7
20260506044517 70 285 0.0 0.0 0.00 0.00 0.00 54 1007.8
20260506043026 70 282 0.0 0.0 0.00 0.00 0.00 53 1007.8
20260506041518 71 340 0.0 4.3 0.00 0.00 0.00 52 1007.6
20260506040005 72 6 0.0 1.7 0.00 0.00 0.00 51 1007.5
20260506034509 72 358 0.0 2.6 0.00 0.00 0.00 50 1007.3
20260506033015 72 60 0.0 6.1 0.00 0.00 0.00 50 1007.2
20260506031525 72 275 0.0 7.0 0.00 0.00 0.00 49 1007.3
20260506030027 71 229 0.9 6.1 0.00 0.00 0.00 50 1007.2
20260506024520 72 181 0.0 2.6 0.00 0.00 0.00 50 1007.2
20260506023012 72 17 0.0 0.0 0.00 0.00 0.00 49 1007.4
20260506021514 73 338 0.0 0.0 0.00 0.00 0.00 49 1007.3
20260506020021 73 344 0.0 0.0 0.00 0.00 0.00 48 1007.4
20260506014522 74 82 0.0 1.7 0.00 0.00 0.00 47 1007.2
20260506013004 74 58 0.0 0.0 0.00 0.00 0.00 46 1007.1
20260506011520 75 172 0.0 2.6 0.00 0.00 0.00 45 1006.9
20260506010018 75 211 0.0 2.6 0.00 0.00 0.00 45 1006.8
20260506004518 75 172 0.0 2.6 0.00 0.00 0.00 44 1006.7
20260506003022 76 359 0.0 6.1 0.00 0.00 0.00 43 1006.4
20260506001509 76 298 0.0 5.2 0.00 0.00 0.00 43 1006.2
20260506000014 76 155 0.0 3.5 0.00 0.00 0.00 43 1006.1
20260505234536 77 167 0.9 7.0 0.00 0.00 0.00 41 1006.0
20260505233024 77 252 0.0 5.2 0.00 0.00 0.00 40 1005.8
20260505231523 78 63 0.0 3.5 0.00 0.00 0.00 40 1005.5
20260505230011 78 297 0.0 4.3 0.00 0.00 0.00 39 1005.4
20260505224519 78 167 0.0 5.2 0.00 0.00 0.00 37 1005.2